Theta_e
312 313 313 312 311 310 311 311 311 313 313 315 317 316 318 320 316 317 317 315 314 315 315 315 314 314 314 315 316 315 314 315 314 314 315 315 315 315 318 320 322 323 320 320 325 329 330 332 333 333 333 333 333 334 334 335 335 335 335 334 334 334 334 334 333 334 335 334 334 334 333 332 332 332 332 332 331 332 332 332 332 332 332 332 331 331
311 312 313 311 310 310 311 312 311 311 310 311 315 315 316 320 317 315 315 314 313 314 315 316 315 314 315 315 315 315 314 314 314 314 314 315 315 315 316 318 319 318 316 317 321 325 328 331 331 332 332 332 333 333 334 334 334 335 335 335 335 334 334 333 333 333 334 334 333 332 333 333 333 332 331 331 331 330 331 331 332 332 331 332 332 332
311 312 312 310 311 311 311 312 311 311 311 312 316 316 315 318 318 314 315 314 313 313 316 317 315 314 315 314 314 315 314 313 312 313 314 314 316 316 316 317 317 316 320 322 320 320 325 328 330 331 332 332 332 332 333 334 334 335 335 335 335 335 334 333 333 333 333 333 331 331 332 332 332 332 331 331 331 331 331 331 331 331 332 332 332 331
313 311 310 311 312 311 311 311 311 311 311 313 317 317 316 316 316 315 314 314 313 313 315 317 316 316 315 315 315 315 314 314 313 313 313 314 316 317 317 318 317 317 323 327 322 319 322 326 329 330 331 332 331 331 333 334 335 335 335 335 335 334 334 334 333 333 332 331 331 331 331 331 331 331 331 331 331 331 331 330 331 331 332 332 331 331
312 312 311 311 311 311 311 311 312 312 312 316 319 320 321 319 317 316 315 314 313 313 314 314 315 317 316 315 316 316 314 313 314 314 313 314 315 316 317 317 317 318 322 326 325 322 320 322 327 329 330 331 331 331 332 334 335 335 335 334 334 334 334 334 333 333 332 331 332 331 331 331 331 331 331 331 331 331 331 331 331 331 331 332 331 332
312 312 312 311 311 313 313 311 315 315 313 316 320 323 324 320 318 318 317 316 313 313 317 313 312 323 327 318 314 314 314 313 313 314 314 314 314 315 316 317 317 318 320 324 323 319 317 320 324 327 329 330 331 331 332 333 334 335 335 335 334 334 334 334 333 333 333 332 332 332 332 331 331 331 330 331 331 331 331 331 331 331 331 332 332 331
313 311 312 313 312 315 316 313 318 320 314 313 318 322 322 321 322 321 318 319 318 316 316 312 313 323 325 318 316 314 312 313 313 314 315 313 314 316 315 318 321 320 320 322 319 315 314 316 319 322 326 328 329 330 331 332 333 334 334 334 334 334 334 334 333 333 333 332 332 332 332 331 331 331 330 330 331 331 331 331 331 331 331 331 331 331
313 311 313 315 314 316 316 313 317 319 315 316 320 323 325 323 324 322 317 322 325 318 315 316 315 316 316 317 321 318 313 313 313 314 316 315 315 317 317 320 324 324 323 323 322 319 313 312 314 317 322 327 328 329 329 330 331 332 332 333 333 333 333 333 333 332 332 332 332 332 331 331 331 330 330 330 330 330 330 329 329 329 329 329 329 329
313 314 314 315 316 316 315 316 320 319 314 320 323 324 325 323 324 324 319 321 322 317 320 322 315 313 320 327 324 318 315 315 316 315 316 317 317 317 318 319 322 324 325 325 325 319 311 309 313 315 317 321 323 325 327 328 329 329 330 331 332 332 332 332 333 332 332 332 331 331 331 331 331 330 330 329 328 328 327 327 327 327 327 327 327 327
315 314 315 316 316 317 319 323 327 323 314 319 324 326 327 327 325 321 322 324 317 315 324 326 316 312 322 331 322 313 316 318 317 316 314 316 317 316 317 319 322 325 327 330 325 314 309 311 312 313 314 315 316 318 320 322 325 327 328 329 330 331 332 332 332 332 332 331 331 331 331 331 331 330 329 328 327 326 326 325 325 325 325 325 325 326
312 310 313 318 316 318 321 320 321 322 318 320 327 327 326 329 328 325 331 329 315 320 332 329 320 312 315 325 324 315 318 319 317 316 315 317 317 317 320 322 326 329 329 330 324 313 310 312 312 312 312 313 312 313 313 315 319 324 326 327 329 329 330 331 331 331 331 331 330 330 330 330 330 328 327 326 326 325 325 325 325 325 325 325 324 324
313 310 313 316 314 316 320 316 317 321 321 323 329 326 319 323 328 329 330 321 315 327 333 323 318 314 315 323 324 319 319 319 317 316 319 322 322 322 324 324 326 331 330 328 325 318 313 311 311 312 312 312 312 312 312 312 315 321 324 325 327 328 328 329 329 330 330 330 330 329 329 329 328 327 326 326 325 325 324 324 324 324 324 324 324 324
316 314 314 315 313 314 320 318 316 319 321 323 324 319 317 319 320 322 325 320 320 325 320 315 316 316 317 319 318 318 317 316 318 319 322 325 324 323 323 323 325 329 330 327 325 323 317 311 310 312 312 312 312 311 311 311 312 316 319 321 324 325 326 327 328 328 328 329 329 328 328 327 326 326 325 325 325 324 323 323 324 323 323 323 322 321
317 318 316 315 313 314 319 317 314 317 318 319 318 315 320 323 315 315 321 320 320 321 315 313 316 318 318 317 316 317 315 315 320 323 324 323 323 323 323 324 325 325 327 327 325 326 321 311 309 312 312 312 312 311 311 310 310 312 314 316 319 322 323 324 325 325 326 327 326 326 325 325 324 324 324 324 324 323 322 322 322 321 320 319 318 317
318 319 316 316 314 314 317 317 319 322 318 319 322 318 321 326 321 320 322 322 322 322 316 311 315 323 320 316 318 316 312 315 319 321 321 321 322 324 324 324 324 323 325 327 326 325 318 310 310 313 313 313 313 312 311 310 310 310 311 314 316 319 320 321 322 323 324 324 324 323 323 323 323 323 323 323 322 322 321 321 320 319 318 317 317 317
315 315 317 317 315 315 317 318 321 320 317 320 323 321 321 324 330 327 323 328 329 321 316 314 319 327 319 314 318 315 312 314 315 317 320 321 322 323 323 323 322 323 324 324 325 325 317 310 312 314 313 314 313 312 312 311 312 312 312 315 316 318 320 320 321 322 322 322 322 322 321 322 323 323 322 322 321 321 320 320 319 319 318 318 318 318
314 314 316 317 315 313 315 317 319 317 317 319 319 323 325 322 328 324 315 318 320 318 321 316 317 322 316 314 318 314 313 313 311 314 316 319 322 323 323 321 321 324 323 323 324 323 316 311 313 315 315 315 315 314 313 313 314 314 314 317 317 319 320 320 320 320 321 321 320 319 319 320 321 320 320 319 319 318 318 318 319 318 318 318 317 317
318 317 315 316 315 312 313 317 318 315 317 319 318 322 322 317 321 321 314 315 314 318 324 316 314 319 316 318 320 313 313 314 312 313 313 315 320 323 325 322 321 323 322 322 322 318 313 311 313 315 315 316 316 316 315 315 316 316 316 318 318 319 320 320 320 320 320 319 317 316 317 318 318 317 317 317 317 316 317 317 318 317 317 317 317 316
321 319 314 314 315 314 314 317 317 314 313 317 319 319 319 318 320 319 317 318 315 315 322 317 315 319 317 321 322 315 314 315 312 313 312 314 318 322 325 323 321 322 322 321 321 318 313 310 312 314 315 317 317 317 317 317 317 318 318 318 318 318 318 318 318 318 318 317 316 316 316 316 316 316 315 316 316 316 317 317 317 317 316 315 314 313
319 319 317 314 314 315 314 315 317 315 312 314 316 314 316 319 321 319 317 321 321 318 322 319 316 321 324 324 325 319 319 316 312 313 312 312 317 321 324 323 322 322 322 320 320 320 314 308 310 313 314 316 317 317 318 318 319 319 318 317 317 316 316 316 316 316 317 317 316 316 316 316 316 316 316 316 315 315 315 315 314 314 313 312 311 311
314 318 322 315 312 315 316 315 317 316 314 315 315 313 314 315 317 317 317 323 326 322 322 319 318 331 333 322 320 318 317 316 312 312 312 312 316 320 321 322 322 321 321 319 319 319 311 307 310 312 313 314 315 316 317 317 318 318 317 317 317 317 317 317 317 318 318 318 317 317 316 316 316 315 315 314 313 312 311 311 311 310 310 309 309 309
315 317 320 316 314 316 318 317 316 317 316 315 314 315 316 315 317 317 316 321 322 319 326 323 319 336 338 319 315 316 315 316 313 311 313 312 315 320 320 320 320 320 321 319 319 317 309 306 308 310 311 312 313 313 314 314 315 315 316 316 316 316 317 316 317 317 316 316 315 315 314 314 313 312 312 311 310 309 309 309 309 308 308 307 307 307
321 320 320 318 317 317 318 315 313 316 319 317 315 318 318 316 317 318 319 323 319 314 324 322 316 333 338 319 315 317 315 317 315 314 315 314 315 320 320 318 318 318 319 319 317 313 307 306 308 309 310 310 310 311 311 312 312 313 313 313 313 313 313 313 313 313 313 312 312 311 311 310 310 309 309 308 308 308 308 307 307 307 307 306 306 306
320 321 320 318 316 316 317 316 313 314 317 317 317 319 318 315 315 320 325 329 323 315 318 315 312 327 337 323 319 320 316 316 314 312 316 320 320 321 322 320 320 319 319 318 316 309 304 305 307 307 308 309 309 309 309 309 310 310 310 310 310 310 310 310 310 310 309 309 309 309 308 308 308 308 308 307 307 307 306 306 306 306 306 305 305 305
315 318 320 319 318 318 320 318 315 315 315 318 319 317 315 315 314 317 321 318 318 322 321 317 316 326 334 324 317 317 318 316 315 312 316 324 324 323 323 322 320 320 319 319 317 313 309 307 305 306 307 308 308 308 308 308 308 308 308 308 308 308 308 308 308 308 308 308 307 307 307 307 307 307 307 306 306 306 306 306 305 305 304 304 304 303
318 320 320 320 318 317 318 317 316 317 316 317 319 316 314 317 315 316 319 314 316 323 320 317 320 322 325 320 312 314 318 317 316 314 314 319 323 324 324 323 321 319 319 318 317 315 312 308 305 305 307 308 308 308 307 307 307 307 306 306 306 306 306 306 306 306 306 307 307 307 306 306 306 306 305 305 305 305 305 305 304 304 303 303 302 301
323 322 317 317 317 314 316 318 318 319 317 315 318 317 316 319 318 317 320 317 318 322 320 320 322 317 317 317 313 315 319 316 315 315 312 316 322 324 323 322 320 318 316 315 314 314 313 310 307 305 306 308 308 308 307 307 307 306 305 305 305 306 306 306 306 306 306 306 306 306 305 305 305 305 305 304 304 304 304 303 303 302 301 300 299 298
322 318 316 316 316 314 317 320 319 317 317 315 317 318 317 318 319 318 317 315 316 319 318 320 322 316 313 316 316 316 318 317 316 316 313 314 320 322 321 320 319 316 314 313 313 313 313 314 310 304 305 307 307 307 306 306 306 306 305 305 305 306 306 306 305 305 305 305 305 304 304 304 304 304 304 304 303 303 302 301 300 299 298 297 296 296
319 316 317 317 315 315 318 320 319 316 316 316 315 316 316 317 318 318 316 315 316 316 314 315 319 317 313 315 317 317 317 317 316 314 311 312 317 320 319 319 319 317 316 315 314 312 312 314 310 304 304 306 306 306 305 304 304 304 304 304 304 305 306 305 305 304 303 303 303 303 303 303 303 303 303 302 302 301 300 298 298 297 296 295 295 294
316 318 319 316 313 315 318 319 319 317 315 316 316 316 315 315 316 316 315 315 315 316 314 314 316 316 315 317 320 319 317 316 316 316 313 313 318 319 318 319 318 316 315 315 313 311 312 312 307 303 303 304 304 304 303 302 303 304 304 304 303 304 304 304 304 302 302 302 301 302 302 302 302 301 300 300 299 298 297 296 296 295 295 294 294 294
314 318 320 315 312 315 318 319 319 318 317 316 317 316 315 315 316 315 315 315 315 315 315 315 317 316 316 319 320 320 319 315 316 320 317 314 317 319 318 317 317 316 314 313 313 311 312 311 305 302 302 303 302 303 303 302 302 303 303 303 302 303 303 302 302 302 301 301 300 300 300 300 299 299 298 297 297 296 295 295 295 294 294 294 294 293
315 317 318 316 315 316 317 318 318 317 316 316 318 318 317 316 315 314 315 314 315 315 315 316 316 314 314 319 320 320 320 318 318 320 317 314 316 319 319 318 317 315 313 313 313 312 313 313 307 303 302 302 302 303 302 302 302 302 302 302 302 301 301 301 301 301 300 298 297 298 298 297 297 296 296 295 295 295 294 294 294 294 294 294 293 293
318 318 318 318 317 315 314 316 317 316 315 316 317 318 316 315 314 314 315 315 314 314 315 315 314 312 314 318 317 317 319 318 317 318 316 315 316 317 318 318 316 314 313 312 312 312 312 311 307 303 302 302 302 302 302 302 301 301 301 301 301 300 300 300 300 299 298 296 296 296 296 296 295 295 295 294 294 294 294 293 294 293 293 293 293 293
318 320 320 318 318 318 314 316 317 316 315 315 316 318 317 315 315 314 315 315 314 313 313 313 312 312 314 316 314 315 317 316 315 315 316 317 318 317 317 317 315 314 312 311 312 312 309 306 305 304 303 302 302 302 302 302 302 301 301 300 300 299 299 298 298 297 296 295 295 295 295 295 295 294 294 294 294 293 293 293 293 293 293 293 293 292
316 319 319 317 320 320 316 316 317 315 314 316 320 322 318 314 315 315 315 314 313 313 313 313 312 311 313 315 314 314 316 315 314 315 315 315 316 317 317 316 315 314 313 312 313 311 306 304 304 304 302 302 302 301 301 301 300 300 299 299 298 298 297 297 296 295 295 295 294 294 294 294 294 294 294 293 293 293 293 293 293 293 293 292 292 292
315 317 319 317 319 319 316 316 317 316 315 317 320 319 315 314 316 316 316 315 313 312 313 313 312 311 312 315 314 314 315 313 312 313 314 313 314 316 318 317 315 314 315 313 311 308 305 305 305 304 303 302 302 301 300 300 299 299 298 297 297 297 296 296 295 294 294 294 294 294 294 294 294 293 293 293 293 293 293 293 292 292 292 291 291 291
313 316 318 316 316 319 318 316 317 318 317 316 316 315 314 316 318 316 316 316 313 313 313 312 312 311 312 313 314 315 313 311 311 312 314 315 315 316 317 316 313 312 312 308 306 306 305 306 306 304 303 302 301 301 300 299 298 298 296 296 296 295 295 294 294 294 293 293 293 293 293 293 293 293 293 293 293 293 292 292 292 291 291 290 290 290
311 315 318 315 316 320 319 317 318 318 317 315 315 315 314 317 319 316 315 315 313 313 313 312 312 312 311 313 316 316 314 313 315 314 314 318 320 318 318 313 305 304 306 305 304 305 304 304 304 303 303 301 300 300 299 298 297 297 295 295 294 294 293 293 293 293 293 293 293 293 293 293 293 293 292 292 292 292 291 291 291 291 290 290 290 290
313 315 316 314 317 318 318 318 318 317 317 316 316 317 317 319 319 315 314 315 314 313 314 312 312 313 313 314 317 317 316 316 316 313 315 321 320 316 318 314 301 297 301 303 303 303 302 302 302 301 300 300 298 298 298 296 296 296 294 293 293 293 292 292 292 293 293 293 292 292 292 292 292 292 292 291 291 291 290 290 290 290 290 290 289 289
314 315 315 314 316 316 315 317 316 315 316 318 318 318 317 318 317 316 315 314 313 316 316 312 312 313 314 315 316 315 315 314 313 315 318 319 313 305 307 310 302 296 297 299 300 301 300 300 299 298 298 298 297 297 296 295 295 294 293 292 292 292 292 292 292 292 292 292 292 292 292 291 291 291 291 291 290 290 290 290 290 289 289 289 289 288
314 315 315 313 314 315 315 316 315 314 316 322 322 317 315 316 315 315 315 315 316 319 316 313 313 313 313 314 314 311 313 316 316 317 315 314 312 305 299 298 297 295 295 296 297 298 298 297 297 297 296 296 296 295 295 295 294 292 291 291 291 291 291 291 292 292 292 291 291 291 291 290 290 290 290 290 290 289 290 289 289 289 288 288 287 287
313 314 315 313 313 314 314 314 314 313 315 321 318 311 311 314 315 316 319 320 322 323 317 313 313 313 312 312 311 311 317 318 312 310 308 308 311 307 296 292 293 293 293 294 295 296 296 295 295 295 294 294 295 294 293 294 293 291 290 290 290 290 290 291 291 291 291 290 290 290 289 289 289 289 289 289 289 289 289 288 288 287 287 286 285 285
313 313 314 313 313 313 314 314 314 314 315 317 314 310 311 315 321 325 325 321 320 323 322 316 315 315 313 311 312 317 320 315 307 305 304 301 301 299 294 293 293 291 291 292 293 294 294 293 292 292 292 293 293 293 293 293 292 290 289 289 289 290 290 290 290 290 290 289 289 289 289 288 288 289 289 289 288 288 287 287 286 286 285 284 284 284
313 313 314 314 312 313 313 313 313 316 316 313 315 315 312 315 324 328 324 319 318 321 323 322 320 319 316 314 316 317 315 311 306 304 302 300 297 296 294 292 291 291 291 291 291 292 293 291 290 290 291 291 292 292 292 293 291 289 288 289 289 289 289 289 289 289 289 288 288 288 288 288 288 288 288 288 287 287 286 285 284 284 283 283 284 284
311 312 315 315 311 312 313 312 315 320 317 312 315 317 313 314 322 323 321 322 322 320 320 322 323 321 317 315 315 313 311 308 304 302 302 300 297 295 294 292 290 290 290 290 290 291 291 290 289 289 289 290 290 290 291 292 292 290 288 288 289 289 289 289 288 288 288 288 288 288 288 288 287 287 287 287 286 286 285 284 283 283 283 283 284 284
314 315 316 315 313 313 312 312 315 317 314 313 316 316 314 317 319 318 320 321 321 320 319 321 324 324 317 313 314 313 309 306 303 300 299 297 295 293 292 291 290 290 289 288 289 289 289 289 288 288 288 288 289 289 289 290 291 291 289 289 289 288 288 288 288 288 287 287 287 287 287 287 287 286 286 285 285 285 285 284 284 284 283 283 283 283
316 315 315 316 315 313 312 313 316 316 315 317 317 312 312 316 316 315 319 319 317 318 318 317 319 319 313 311 317 317 308 302 302 300 296 294 294 293 291 290 289 289 288 288 288 288 288 287 287 286 287 287 287 288 288 288 289 290 290 289 288 288 288 288 288 287 287 287 287 287 286 286 286 285 285 285 284 284 284 284 283 283 282 282 282 281
314 312 314 317 316 313 313 314 314 313 314 316 316 313 314 316 314 311 311 310 308 309 309 308 309 311 311 312 316 315 307 300 301 300 296 293 294 293 290 289 289 288 288 287 287 287 287 286 285 285 285 285 285 286 287 287 288 288 289 288 288 287 287 287 287 287 287 286 286 286 285 285 285 284 284 284 283 283 283 282 282 281 281 280 280 280
312 311 315 318 316 313 313 312 311 312 312 311 313 314 313 312 311 308 304 304 306 307 307 307 306 307 312 311 310 312 310 302 298 298 296 294 293 292 290 289 289 288 288 286 286 286 286 285 285 285 284 284 284 285 285 286 286 287 288 288 287 287 287 287 286 286 286 285 285 285 284 284 284 283 283 283 282 282 282 281 281 280 279 279 279 278
312 313 314 315 315 314 315 313 311 314 316 312 312 314 309 305 307 308 306 307 308 307 308 310 306 303 304 302 302 310 312 303 296 297 296 294 292 290 289 289 288 287 287 286 285 286 286 285 285 284 284 283 283 284 284 285 286 286 286 286 286 286 287 286 286 285 285 284 284 284 283 283 283 282 282 282 281 281 281 280 279 278 278 278 278 278
312 314 314 314 313 313 314 314 312 315 317 311 308 309 306 303 308 313 312 310 308 304 305 310 309 306 304 299 296 302 307 302 296 296 296 294 291 289 289 288 288 287 286 286 285 284 284 284 284 283 283 282 282 282 283 284 285 285 285 285 285 285 286 286 285 285 284 284 283 283 282 282 282 281 281 281 281 280 279 279 278 277 277 277 277 277
Wind_Speed
4 5 8 9 9 8 7 6 6 8 7 4 4 5 6 5 4 4 3 4 3 5 6 7 8 9 8 7 8 7 5 6 7 7 8 8 7 8 8 9 10 10 10 16 24 27 29 31 32 32 32 33 32 32 33 33 32 32 32 32 32 32 31 31 31 31 31 30 28 28 29 29 28 27 26 27 27 26 25 24 23 23 23 23 23 23
6 8 10 9 8 7 7 6 6 9 9 5 4 5 6 6 4 3 2 3 0 2 5 5 5 9 8 8 8 6 7 8 10 9 10 10 9 7 9 10 10 8 7 11 18 23 28 30 31 31 32 33 32 32 34 34 34 33 33 34 33 33 33 33 33 33 33 33 32 31 31 31 29 28 27 26 26 25 24 24 24 24 23 22 22 22
8 8 10 10 8 7 7 6 7 10 9 5 3 5 5 5 3 2 2 1 1 1 3 2 4 9 10 9 7 6 9 9 10 12 11 11 10 8 8 10 9 8 6 8 12 18 26 29 31 31 31 33 34 34 34 34 35 34 34 35 34 34 34 34 34 35 35 34 33 32 31 29 28 27 26 25 23 22 22 22 23 23 22 22 22 22
6 5 9 9 7 8 9 6 7 9 7 5 2 4 4 4 4 2 2 1 1 1 1 1 2 7 8 7 6 8 10 7 9 12 11 10 11 11 11 10 10 10 9 9 9 13 21 26 28 30 31 32 33 33 33 34 34 35 36 36 36 36 36 35 35 35 35 33 31 31 29 27 26 24 23 22 22 22 22 21 22 23 23 22 22 23
4 4 8 9 6 8 9 8 7 6 5 5 4 5 4 5 5 3 3 3 2 2 1 4 3 6 6 6 8 8 8 7 8 10 10 9 10 10 10 10 10 11 11 11 10 10 15 22 26 30 32 32 32 33 34 35 36 36 36 37 37 37 37 36 35 34 33 32 30 30 28 25 24 23 22 23 24 24 23 22 22 23 23 23 22 21
6 5 8 11 8 6 7 8 7 5 5 5 4 6 6 7 5 5 6 5 3 3 3 3 0 6 5 6 10 8 6 8 8 9 12 12 10 8 9 10 10 10 9 10 10 11 14 20 25 28 30 31 32 34 36 37 37 36 36 36 36 37 37 36 35 34 33 32 32 31 29 27 25 24 24 26 27 25 25 24 22 22 22 22 21 20
4 4 7 10 9 7 6 7 6 5 5 4 5 4 6 7 7 9 8 5 3 3 3 3 5 5 6 4 10 8 7 10 8 9 13 12 9 9 10 9 9 9 8 8 9 10 13 18 21 24 27 31 33 35 36 36 36 35 35 36 36 36 36 36 35 34 33 33 33 32 31 29 28 27 26 25 24 22 22 21 21 21 21 20 19 18
3 6 6 7 7 8 6 6 6 5 5 4 3 4 8 9 8 9 9 4 3 3 2 2 4 3 5 6 8 5 6 10 8 9 11 9 9 11 10 9 9 9 8 8 8 9 12 17 21 24 29 32 34 34 33 33 34 34 34 35 35 34 34 34 33 34 34 33 32 32 31 30 28 27 25 22 19 17 17 16 17 17 17 17 17 17
3 7 8 8 6 6 6 6 6 6 5 5 3 5 7 8 8 8 7 3 1 3 1 4 3 2 6 7 6 1 4 8 8 11 12 10 10 10 10 9 8 8 7 8 8 9 12 17 23 26 29 31 31 30 30 31 32 32 32 33 33 33 32 32 32 32 33 32 30 30 30 29 27 26 23 20 17 16 15 14 14 13 13 14 14 14
2 6 7 8 7 5 5 4 4 5 4 4 3 5 4 4 5 5 5 4 3 2 4 7 4 3 5 6 4 1 2 7 8 9 10 10 10 9 9 9 8 6 5 6 6 7 11 16 20 22 24 26 27 27 27 27 27 28 29 30 31 31 30 30 30 30 31 31 29 27 28 28 27 25 22 19 16 15 14 13 12 12 13 12 12 12
1 1 1 4 4 4 5 2 2 3 3 3 5 6 6 5 4 4 3 4 3 2 6 7 4 3 3 5 4 4 5 7 7 6 7 8 9 8 7 6 6 6 5 5 4 4 7 11 14 15 18 20 21 22 23 24 24 25 26 27 29 29 28 27 27 27 29 29 28 27 27 27 26 24 20 19 17 16 15 13 13 13 14 14 13 12
3 1 1 1 1 3 5 2 1 1 2 5 4 4 4 3 4 4 4 2 2 5 6 4 2 4 4 5 5 5 6 6 7 7 8 8 7 6 5 5 5 5 5 5 4 4 6 8 11 13 15 17 18 19 21 23 23 23 24 25 26 27 26 26 25 25 26 27 28 28 28 27 25 23 21 20 19 18 17 15 13 14 14 15 15 14
2 0 1 1 1 3 5 3 3 4 3 4 4 6 4 0 2 1 2 1 3 5 4 2 1 3 5 7 8 9 9 7 7 8 8 8 7 6 6 6 5 5 5 5 5 5 5 7 10 12 15 16 17 19 20 22 24 24 25 25 26 26 25 25 24 24 24 26 27 28 27 25 24 22 22 21 20 19 17 16 14 14 14 15 16 16
0 4 2 1 1 1 4 4 2 0 1 3 5 5 5 3 3 2 4 2 3 4 3 2 1 2 4 6 10 13 13 10 7 7 7 9 8 7 7 6 5 5 6 5 6 6 5 7 11 13 15 16 17 18 20 22 23 24 25 25 25 24 23 23 23 23 24 25 25 25 23 22 22 21 20 19 18 16 15 16 15 14 13 12 11 9
5 2 2 3 1 2 4 3 4 5 4 4 5 5 5 5 4 4 3 3 4 3 3 2 1 3 3 4 8 9 9 4 4 3 4 7 6 6 6 5 5 5 5 5 6 6 7 10 13 14 15 16 17 18 20 21 22 23 24 24 24 24 22 23 23 23 24 24 23 22 21 20 20 19 18 17 15 13 12 12 11 10 9 7 6 4
6 3 2 1 0 3 4 2 2 6 3 4 3 5 4 5 5 3 3 5 5 1 1 2 3 5 4 6 7 4 4 2 3 3 6 6 5 6 5 5 6 5 5 5 5 5 7 10 14 15 15 16 17 18 20 21 22 23 24 24 24 24 23 23 23 23 23 23 22 22 21 20 19 19 17 16 15 14 13 11 10 9 7 6 5 5
5 2 4 2 2 1 3 1 1 2 3 2 3 4 5 4 7 4 2 2 4 2 3 2 3 5 3 6 7 1 1 2 2 3 6 7 6 7 6 6 6 6 6 5 5 5 6 10 13 15 16 17 18 19 20 21 22 23 24 25 24 23 22 23 23 22 21 21 21 21 21 20 19 18 17 16 15 13 11 10 9 8 7 6 7 7
5 1 4 1 1 2 1 3 2 1 2 4 3 5 3 3 4 3 2 2 3 2 4 2 5 5 3 4 5 2 4 7 6 5 5 6 6 6 6 6 6 6 6 5 6 6 7 10 13 15 16 17 18 18 19 20 21 22 24 24 24 24 23 23 22 22 21 20 19 18 19 19 17 15 14 12 10 8 8 8 8 8 8 8 9 10
5 3 3 1 1 2 2 3 2 0 2 4 3 2 3 3 2 1 3 1 1 3 4 3 4 3 4 5 4 3 8 9 8 7 6 7 7 6 6 6 6 6 5 5 6 5 6 10 13 15 17 17 17 17 18 19 20 20 22 22 23 22 21 22 21 21 19 18 16 16 16 15 13 11 10 10 9 8 8 8 8 8 9 9 9 9
4 4 2 2 1 1 2 1 5 3 0 1 1 1 1 2 4 3 3 3 3 4 4 3 2 3 6 6 5 8 10 10 10 9 8 9 8 7 7 6 7 6 6 6 6 5 6 10 14 16 18 19 19 18 18 19 19 19 19 20 20 19 18 18 19 18 16 14 14 13 13 12 10 9 9 10 9 9 9 9 9 9 8 8 7 7
3 3 2 1 2 1 2 3 6 6 4 2 1 1 1 0 1 1 1 2 4 3 3 2 2 5 6 5 7 9 10 10 11 9 9 8 8 7 7 7 7 7 7 6 7 6 7 11 15 17 19 19 19 19 19 19 19 19 18 19 20 19 19 19 18 18 16 15 15 14 14 13 12 11 10 9 9 9 9 8 7 7 5 5 5 4
2 3 4 2 1 3 3 3 2 5 6 6 5 5 6 3 3 2 3 2 2 3 4 4 3 7 6 3 5 7 7 6 7 9 8 8 8 8 7 8 8 7 7 7 7 7 8 12 16 18 19 19 20 20 19 19 19 20 20 20 21 20 20 20 19 19 18 17 16 15 15 14 13 12 11 10 9 9 8 7 5 5 4 3 2 2
3 4 4 2 2 4 5 4 2 1 2 4 3 4 5 4 4 5 5 3 1 2 2 3 2 6 6 4 3 5 5 4 3 6 8 7 7 8 7 7 7 6 6 7 7 7 10 14 17 19 19 19 19 20 19 19 19 20 20 20 21 21 20 19 18 18 17 17 17 15 14 13 12 11 10 10 10 9 8 7 7 7 6 6 5 6
3 4 4 2 1 3 4 4 2 1 2 2 3 3 4 4 4 5 5 3 3 3 2 2 4 6 6 5 4 5 5 5 4 3 6 6 5 6 7 6 6 5 6 7 7 7 11 14 16 17 18 18 19 19 19 20 19 19 19 19 20 20 19 18 17 17 17 17 16 15 14 13 12 12 12 11 11 11 11 10 10 10 9 9 9 9
2 3 4 4 2 3 3 3 3 2 2 2 2 2 3 3 4 3 1 2 2 4 6 5 5 6 6 5 4 5 5 5 6 3 3 5 5 5 5 5 5 6 6 7 7 7 9 11 12 15 17 18 19 20 20 20 19 19 18 18 18 19 18 17 17 17 17 17 17 16 15 14 14 14 14 14 13 13 13 12 12 12 12 12 12 12
4 5 4 5 6 6 6 5 3 4 2 1 1 2 4 5 6 4 2 2 4 4 5 5 5 6 7 6 4 5 4 4 6 5 2 3 5 5 5 5 5 6 7 8 8 7 7 8 10 14 16 18 19 20 20 20 19 19 18 17 17 18 19 18 17 18 18 18 18 18 17 16 16 16 16 15 15 15 15 14 14 14 14 15 14 14
3 4 5 8 10 10 8 4 5 8 6 5 7 7 7 7 8 7 3 4 6 3 3 6 6 7 10 7 5 6 5 5 6 4 4 4 5 5 6 6 5 6 6 6 7 7 7 7 9 13 16 18 19 19 20 19 19 19 18 18 18 18 19 19 19 19 19 19 20 19 19 18 17 17 17 17 17 17 16 16 16 16 16 15 15 15
4 4 6 9 11 8 7 6 9 12 11 12 13 11 10 9 9 9 7 9 7 4 6 9 7 9 13 9 7 8 7 6 6 7 7 6 6 6 6 6 6 6 6 6 6 7 8 8 8 12 16 18 19 19 18 18 18 18 18 19 19 19 19 19 19 19 19 20 21 21 20 20 19 18 18 18 18 18 18 18 17 16 16 15 15 15
5 6 6 7 8 6 5 7 10 12 11 12 14 14 13 11 11 12 13 13 9 7 11 13 12 13 12 7 7 9 8 8 8 8 7 6 6 6 6 7 7 7 7 7 8 7 8 8 8 12 16 19 20 20 20 20 19 19 19 19 19 19 19 19 19 20 20 21 22 22 22 21 20 20 20 19 19 19 18 18 17 16 15 14 14 13
4 5 4 7 7 5 4 5 8 10 9 8 11 14 14 13 15 16 16 17 15 13 15 15 14 14 10 7 8 8 7 6 4 4 5 7 7 7 8 8 8 8 9 9 9 8 8 8 9 13 17 18 21 22 22 22 22 21 21 20 20 20 20 20 20 21 22 22 23 23 23 22 22 21 21 20 20 19 18 17 16 15 14 13 13 13
1 3 3 6 5 4 1 2 4 7 8 7 9 10 11 12 14 16 17 16 13 13 14 11 10 11 7 7 8 7 2 3 4 5 7 8 7 8 9 8 9 10 10 10 9 8 8 8 9 13 16 19 21 22 23 23 24 24 23 22 22 22 21 21 22 23 23 23 23 24 24 24 23 22 21 21 20 19 17 16 15 14 13 13 12 12
2 2 1 5 5 3 2 2 3 3 2 4 8 10 12 13 13 14 13 12 10 11 12 10 9 12 8 6 7 6 3 6 7 8 7 6 7 9 10 10 11 11 11 10 9 9 10 10 11 14 18 21 24 25 25 25 26 26 26 25 24 24 23 23 24 25 24 24 24 24 25 24 24 23 22 20 19 18 16 15 14 13 12 12 12 11
5 5 2 4 6 3 3 1 3 5 2 6 10 12 15 14 12 10 9 11 13 12 11 11 12 13 7 6 9 8 6 8 10 8 7 7 8 10 11 12 12 12 11 11 10 11 12 12 14 17 20 23 26 27 27 27 28 28 28 27 26 26 26 25 26 26 26 25 24 24 25 24 24 22 21 19 17 16 15 13 12 12 11 11 11 11
5 6 4 4 4 3 2 3 5 2 6 9 5 8 14 14 13 12 11 15 16 14 12 12 13 11 7 9 12 10 9 9 9 8 8 8 9 10 11 11 11 10 9 9 10 11 11 12 15 18 20 23 24 26 26 26 27 28 28 28 28 28 28 27 27 27 27 25 24 25 24 23 22 21 19 17 16 14 13 12 12 12 11 11 11 10
7 6 3 2 3 3 2 5 4 7 10 5 3 4 11 13 15 16 17 18 18 16 16 16 15 12 9 10 11 9 10 10 9 9 10 9 9 10 11 11 10 9 9 9 9 9 10 15 18 20 21 23 24 25 26 26 27 28 29 29 30 30 29 29 28 27 27 26 24 24 23 22 20 19 17 16 14 13 12 12 11 11 11 10 10 10
8 6 3 2 3 2 2 5 6 9 5 5 8 6 4 6 9 11 14 15 13 12 12 15 17 14 9 9 9 7 6 7 6 7 9 8 8 9 10 11 11 10 10 12 13 14 18 24 26 27 27 26 26 27 27 28 29 30 30 30 30 30 29 29 28 27 26 25 24 22 21 20 19 18 16 14 13 12 12 12 11 11 10 10 10 10
8 7 4 3 3 3 3 4 3 5 7 9 11 6 5 5 8 8 9 12 10 10 12 14 17 15 11 10 8 2 2 2 4 8 8 7 7 8 9 9 10 12 12 14 16 19 24 27 28 29 30 29 29 29 29 30 31 32 31 30 30 30 29 28 27 26 25 24 23 21 20 18 17 16 15 14 13 13 12 11 11 10 10 10 9 9
7 6 6 5 3 4 5 2 1 3 11 13 7 5 7 7 7 9 6 10 10 13 15 15 16 16 11 9 6 3 4 3 5 8 6 6 8 8 5 2 4 9 12 14 16 17 20 23 25 29 31 31 30 29 31 32 32 33 32 31 30 29 28 27 26 25 24 23 22 20 19 17 16 16 15 14 13 13 12 11 10 10 9 9 8 9
6 3 5 6 3 4 5 4 4 7 13 8 6 8 8 8 9 10 3 10 9 11 12 14 15 13 9 8 7 6 6 5 8 8 7 8 8 6 5 3 4 7 10 14 18 20 22 24 26 28 29 30 30 30 32 33 33 33 32 30 30 29 27 26 25 24 23 22 21 19 18 17 16 15 15 14 13 13 12 10 10 9 8 8 8 8
6 3 4 6 5 4 6 5 4 6 10 6 9 9 9 10 12 10 5 11 5 10 11 13 13 11 9 9 8 8 8 10 10 7 6 7 5 3 5 5 6 9 12 13 16 21 24 26 27 28 28 29 31 32 33 33 32 32 31 30 29 28 26 26 25 23 22 21 20 19 18 17 16 15 14 14 13 12 11 10 9 8 7 7 7 8
2 1 3 6 6 6 7 6 5 6 8 7 8 9 11 12 9 8 10 8 5 10 11 11 11 12 11 10 8 8 9 7 3 2 6 8 6 4 5 8 9 11 13 16 18 22 24 24 25 26 26 28 31 32 33 33 31 30 29 29 27 26 25 25 24 22 22 21 19 19 17 16 15 14 13 13 12 11 10 9 8 7 7 7 7 7
3 2 1 3 5 4 4 4 4 8 6 6 4 5 9 9 6 9 8 3 6 9 8 8 11 11 10 10 10 8 5 2 4 5 6 7 7 6 6 9 12 13 14 17 20 22 24 22 21 23 23 25 30 32 32 32 30 29 28 27 26 25 25 24 23 22 21 20 19 18 17 16 15 14 13 12 11 10 9 9 8 7 7 7 7 7
6 5 3 5 6 4 3 5 6 8 4 10 10 3 4 7 7 6 4 2 4 7 5 6 8 7 8 10 8 5 5 4 5 5 5 5 6 7 7 9 11 13 15 18 19 21 24 23 21 22 23 24 28 30 30 31 30 28 27 26 25 25 25 24 23 22 21 20 19 18 17 16 15 13 13 11 10 10 10 9 9 8 7 7 7 8
7 7 5 5 5 5 6 8 8 5 5 10 10 7 8 8 5 5 6 4 4 5 5 5 6 6 8 9 7 6 6 5 5 5 6 5 5 6 7 8 12 14 15 17 19 21 24 24 22 21 21 23 26 27 28 30 29 28 26 25 25 25 24 23 23 22 21 20 19 18 16 15 14 13 12 11 11 11 11 10 9 8 8 7 8 8
9 9 6 5 6 6 7 9 7 4 3 5 3 5 10 10 5 5 7 5 4 5 5 5 5 5 6 8 9 7 5 5 6 6 6 6 6 6 7 9 12 15 16 17 20 21 23 24 24 23 21 21 23 25 25 27 29 28 26 25 25 25 24 23 23 22 21 20 18 17 16 14 13 12 12 12 11 11 11 10 9 8 7 7 7 9
6 7 5 4 5 6 7 8 4 2 3 5 2 1 5 7 4 5 6 5 4 6 5 5 7 6 6 9 9 6 5 7 8 6 5 6 6 6 8 9 12 15 17 19 20 21 22 24 24 24 22 21 22 23 24 25 27 28 27 26 26 25 24 23 23 22 20 19 17 17 15 14 14 13 12 11 11 10 10 9 7 7 7 7 7 8
3 5 5 4 5 6 8 8 7 5 6 7 3 2 3 3 2 2 5 5 4 4 4 4 6 7 7 8 9 8 7 8 9 7 6 6 7 7 7 9 12 15 18 20 21 23 24 24 23 23 23 22 21 22 23 23 25 26 26 26 26 25 24 23 22 21 20 18 17 16 15 14 14 13 12 11 10 9 8 8 7 7 7 7 7 8
3 5 5 5 6 7 6 7 5 4 3 4 3 2 4 4 3 4 4 4 3 4 3 3 4 6 6 6 7 9 9 8 9 9 7 6 6 6 7 9 13 16 17 19 22 24 24 24 24 23 23 23 22 23 24 23 24 25 26 26 26 25 24 23 21 20 20 18 17 16 15 14 13 12 11 10 9 9 9 8 8 8 8 8 8 8
5 6 5 5 5 4 5 3 1 4 3 1 4 3 4 5 6 6 5 4 5 5 5 5 4 3 6 6 7 9 9 8 7 8 8 7 6 7 8 11 14 16 18 20 23 24 24 24 24 25 24 23 24 24 24 24 24 24 25 26 25 25 24 23 21 20 19 18 17 16 15 14 13 12 12 11 10 10 9 9 10 9 9 8 7 7
6 6 4 5 6 7 6 6 6 5 2 5 6 4 4 5 7 8 6 6 6 5 6 7 6 5 5 4 6 8 9 7 6 7 8 7 7 8 11 14 15 16 18 20 21 22 22 23 24 25 25 23 24 25 25 25 25 25 25 25 25 24 23 23 22 20 19 18 17 16 15 14 13 13 12 11 11 10 10 11 11 11 10 8 8 8
6 7 7 7 7 7 7 8 6 4 2 2 3 5 5 5 7 8 6 6 6 4 5 7 6 5 6 4 3 6 8 7 7 8 7 5 7 12 14 16 17 18 19 21 22 21 21 21 23 25 24 24 25 26 26 26 26 25 25 25 25 24 23 22 22 21 19 18 17 16 16 15 14 13 12 11 11 11 11 13 13 11 9 9 10 10
Wind_Direction
173 190 209 212 216 224 226 210 202 226 237 217 184 187 192 189 223 234 252 276 153 153 217 204 212 239 239 238 237 223 200 208 223 222 224 226 214 204 203 206 206 210 215 206 204 203 202 203 205 205 205 204 205 205 205 205 206 206 205 204 205 206 206 207 207 206 206 206 207 211 215 218 220 220 223 228 232 236 239 241 240 240 242 243 243 245
201 207 213 216 217 231 233 216 215 235 247 255 220 204 207 197 215 254 244 254 139 158 230 213 220 255 251 241 241 201 182 212 214 207 218 221 219 210 202 209 211 215 217 202 203 203 200 201 202 203 202 201 202 202 203 205 206 206 205 205 205 205 206 207 208 208 207 208 208 209 213 217 218 220 223 226 229 233 237 240 242 243 245 246 246 247
209 217 211 216 219 234 250 233 230 244 242 243 214 186 214 206 184 298 321 247 106 159 257 245 214 251 255 247 244 200 194 216 210 205 211 207 210 213 205 211 213 213 211 197 200 200 198 199 198 199 200 201 203 203 203 205 205 205 205 205 206 206 206 208 209 210 211 213 213 211 213 215 218 223 228 230 232 233 236 239 240 242 244 245 249 252
201 211 201 212 213 219 246 255 241 248 245 238 182 159 214 202 166 240 271 197 136 137 201 88 206 258 267 268 261 222 210 216 212 214 219 207 203 207 206 206 202 201 203 199 200 196 194 195 195 195 198 201 203 203 203 203 203 203 203 205 206 206 207 209 211 213 214 215 215 215 217 219 221 226 230 234 237 238 238 239 239 240 242 244 248 251
205 190 187 211 219 207 230 257 252 240 243 242 197 165 193 193 184 197 167 138 36 352 73 79 7 290 254 245 256 240 219 216 215 216 228 231 218 212 213 210 204 200 195 193 196 193 188 190 192 194 198 200 201 202 203 202 202 202 203 205 207 207 208 210 211 213 213 213 213 213 214 218 221 225 228 230 232 233 234 235 237 239 241 242 244 244
214 190 173 206 222 204 217 244 243 212 223 257 227 192 187 182 168 131 126 109 64 313 272 122 28 288 268 236 241 241 226 223 217 210 221 228 223 218 220 217 213 211 203 195 192 186 185 187 190 194 196 198 200 203 204 204 204 204 204 205 206 208 208 210 212 212 211 211 210 208 207 210 212 214 218 222 225 226 228 231 234 238 241 242 243 243
199 173 157 195 208 198 218 242 230 185 182 243 246 200 163 147 136 137 143 123 130 228 267 144 173 260 306 272 243 239 231 233 224 214 224 224 215 215 216 213 211 209 208 206 197 185 184 186 187 191 196 198 202 206 206 205 206 205 206 205 206 208 210 211 212 211 211 210 210 210 208 208 207 208 212 218 222 225 226 229 232 236 239 243 245 247
148 155 165 184 187 191 208 236 230 173 155 233 249 141 131 134 145 157 154 143 176 189 340 40 144 230 286 267 254 232 217 244 243 229 235 228 217 220 216 211 206 200 193 190 192 189 189 189 188 192 197 201 205 207 206 206 207 208 208 208 208 209 211 212 213 211 210 209 209 209 207 206 207 210 212 213 218 222 228 233 236 238 238 241 245 248
125 161 182 174 168 193 200 225 226 170 167 238 224 134 136 146 153 156 147 134 112 114 299 287 144 183 268 272 288 268 199 248 245 229 234 227 220 221 216 213 210 207 198 187 189 190 191 194 196 198 201 203 206 206 205 206 208 209 210 210 209 210 211 212 212 211 210 209 209 207 206 207 211 216 217 219 224 227 232 236 238 239 240 240 243 247
179 176 180 166 169 192 186 213 219 178 198 222 145 95 70 81 103 118 134 120 75 102 235 245 186 179 268 278 294 347 209 237 235 232 234 227 226 222 218 218 208 197 188 186 192 194 193 195 199 203 205 206 208 208 207 206 207 208 209 209 209 209 210 210 210 209 209 209 208 207 207 209 213 217 220 221 222 221 221 223 227 233 236 236 235 236
275 193 165 154 170 170 150 166 207 202 194 138 92 65 40 27 49 59 72 96 92 259 248 242 205 176 270 278 240 215 218 213 213 237 242 232 233 229 218 207 186 172 167 169 173 178 181 183 188 193 196 199 201 204 205 203 202 202 203 205 206 206 206 206 207 206 206 206 208 209 209 211 213 213 212 211 210 211 213 218 222 223 226 228 229 231
8 91 183 152 172 136 112 89 9 358 119 100 91 98 74 0 17 25 3 63 163 247 262 263 216 163 224 263 244 244 258 225 200 217 231 223 216 207 191 179 175 173 171 171 166 159 157 160 170 176 178 182 187 191 194 196 197 196 197 199 199 201 202 203 203 202 202 204 207 211 212 213 213 212 211 211 213 217 220 220 218 214 218 225 230 236
23 308 228 31 294 150 124 115 24 9 43 88 115 127 125 28 34 29 264 223 214 245 271 295 297 195 229 256 260 270 276 254 219 213 211 195 181 174 170 172 178 175 171 174 175 178 175 174 179 178 176 178 182 185 188 191 193 194 196 197 196 197 198 199 199 199 201 205 208 210 213 215 216 216 218 220 222 224 223 219 219 222 227 233 238 242
74 304 294 81 325 189 153 158 154 226 128 132 149 147 152 147 110 206 241 265 247 255 273 280 285 252 266 270 254 253 255 242 229 225 194 168 166 172 174 174 172 175 177 178 182 187 193 195 193 187 184 184 187 189 190 191 193 194 194 195 195 194 194 196 198 199 201 203 205 207 210 212 214 215 217 220 223 223 220 220 226 234 239 242 248 251
173 253 235 165 188 176 176 182 157 156 167 186 174 146 158 164 151 192 213 208 222 258 285 285 257 193 203 259 250 254 267 237 195 205 154 145 158 158 157 161 163 177 184 179 180 189 197 196 191 186 185 188 191 191 190 191 192 193 192 192 191 189 189 193 195 197 198 199 201 203 203 203 203 206 208 210 213 212 212 219 226 231 236 241 251 264
159 205 274 288 9 146 174 240 114 127 167 223 157 124 179 186 148 151 183 181 174 167 267 242 233 209 205 270 276 286 330 54 119 124 124 139 156 143 148 173 174 184 188 174 167 176 186 184 180 178 180 184 186 186 186 185 185 186 185 185 186 186 186 188 191 194 196 197 198 199 199 198 198 200 202 204 206 207 207 213 220 222 225 231 238 248
155 203 317 349 13 122 167 194 58 125 186 187 136 176 214 168 119 121 198 161 108 151 245 205 238 284 300 286 291 318 163 194 171 157 150 164 169 155 168 187 186 191 189 177 167 165 162 161 166 169 171 175 177 179 181 181 181 181 180 179 180 181 181 185 188 189 190 192 194 195 196 197 197 198 200 201 201 200 198 202 209 212 215 225 233 239
152 140 318 345 166 265 171 119 70 17 137 125 171 212 200 126 104 113 168 13 62 197 265 209 212 269 275 263 316 358 211 231 225 206 195 194 187 179 184 187 189 190 183 173 165 160 149 146 153 158 163 168 171 173 176 176 177 179 178 179 179 179 179 181 184 185 187 189 188 186 186 190 193 193 192 188 183 178 179 188 199 208 219 230 238 244
144 126 307 300 183 279 7 105 143 289 114 139 191 203 122 156 211 140 157 188 178 219 271 277 236 247 213 224 290 262 225 229 227 217 212 210 202 195 193 192 190 179 164 159 158 156 144 141 144 147 152 156 159 162 165 169 174 177 180 183 183 183 183 182 182 183 184 184 179 175 175 179 179 174 167 167 172 180 189 197 207 218 228 237 245 253
159 141 245 281 250 247 16 145 185 188 93 69 6 359 54 159 184 186 173 162 165 204 244 279 293 259 229 218 213 221 223 216 212 212 210 208 202 195 190 186 186 177 167 163 161 159 145 139 140 141 146 148 148 150 152 158 166 171 175 180 180 177 174 172 173 174 174 172 170 167 165 166 167 164 165 172 183 193 198 206 215 222 231 238 247 258
156 138 174 289 327 163 185 221 186 171 169 142 74 171 233 215 145 200 221 138 131 167 204 222 273 266 250 214 199 222 232 216 206 205 208 210 204 199 190 184 186 181 176 168 158 155 144 138 137 137 142 145 145 146 146 149 154 158 160 163 164 162 160 162 166 169 171 169 168 168 167 171 176 179 183 187 192 196 198 204 210 212 221 229 239 250
146 127 141 140 190 197 237 265 198 180 181 171 175 185 190 187 138 168 242 236 136 171 183 172 238 270 256 214 212 241 251 234 210 199 203 208 203 202 197 193 192 182 178 172 159 153 145 141 139 138 140 143 145 146 146 147 148 150 153 156 159 160 161 165 168 171 172 171 171 173 174 177 181 182 186 188 188 189 186 184 183 178 174 177 182 163
123 104 115 134 202 215 255 279 269 225 157 143 192 193 171 166 144 162 210 232 225 225 157 132 221 273 264 240 243 266 276 280 253 207 204 206 201 200 200 200 198 185 175 165 156 153 149 146 143 141 141 142 143 145 146 147 147 149 153 157 160 161 162 164 167 169 171 170 171 172 172 173 173 173 174 174 173 170 165 158 150 141 134 131 127 113
111 102 105 79 318 306 305 306 311 311 113 138 226 196 160 182 177 170 183 172 184 210 160 160 244 266 276 278 276 285 293 299 299 237 195 194 201 202 197 196 190 175 161 153 152 149 147 146 143 142 143 141 142 143 145 146 146 148 151 155 159 159 159 162 163 164 166 166 165 164 164 162 162 165 163 160 156 151 145 138 129 126 124 121 116 107
160 141 120 109 87 358 335 309 289 246 188 203 236 193 177 187 153 146 153 120 222 224 167 172 235 251 272 301 307 308 320 305 287 275 184 175 186 195 187 182 177 164 153 152 151 147 147 147 145 145 145 143 142 142 144 145 146 148 149 154 156 155 156 159 161 162 162 161 158 156 157 157 158 158 153 147 143 136 132 128 123 122 120 116 111 104
169 166 140 138 164 188 201 215 207 180 183 256 233 173 182 178 158 165 176 178 238 240 157 172 230 252 278 308 305 296 306 278 265 270 249 199 187 184 175 172 173 168 166 164 158 155 154 150 148 147 145 144 143 143 145 145 145 146 147 150 152 152 153 154 158 159 159 158 156 153 153 153 151 149 143 139 135 131 128 125 122 120 116 112 108 101
133 175 175 175 193 198 188 178 148 137 148 206 212 196 190 189 178 169 157 191 214 204 184 219 227 243 265 271 266 269 254 237 246 244 232 220 202 193 183 176 176 171 170 166 158 154 153 151 151 147 144 144 144 146 148 147 147 148 147 147 150 152 152 154 158 159 158 157 153 149 148 147 145 143 139 135 132 129 127 124 122 119 115 110 105 98
119 199 200 192 210 206 169 163 160 154 171 197 203 202 200 194 180 176 196 212 197 177 234 242 222 231 249 240 229 247 241 231 237 224 214 210 200 195 183 171 171 168 165 165 166 166 162 157 153 148 146 145 145 147 149 150 150 151 150 149 151 154 155 157 159 158 156 154 150 146 144 143 142 139 136 134 132 129 127 124 121 117 111 107 102 96
139 199 202 191 217 217 171 176 174 170 185 196 197 201 201 192 183 190 212 219 200 195 234 238 223 228 240 227 216 228 223 220 223 212 200 191 188 186 177 173 176 177 178 180 184 181 169 163 158 154 151 150 149 150 151 152 152 152 151 151 153 156 159 161 159 155 153 151 146 144 143 141 140 138 135 133 131 128 126 122 117 114 110 105 100 94
156 198 184 172 205 224 194 185 183 186 197 200 202 206 201 193 192 198 212 219 212 214 229 234 237 242 238 216 225 234 224 220 208 162 164 180 186 183 178 182 186 187 190 189 188 184 175 170 164 159 157 157 157 156 154 154 154 155 154 153 156 158 160 163 159 153 152 149 144 142 142 140 139 136 134 132 130 127 125 121 119 118 112 106 99 92
175 210 164 146 183 247 306 103 162 190 203 208 216 217 204 197 203 209 215 218 215 224 236 245 260 264 243 206 235 258 228 144 142 162 188 193 183 176 180 191 195 196 199 193 184 178 174 170 167 164 165 166 164 162 160 158 157 157 155 155 158 158 160 163 158 152 151 147 143 142 141 139 137 135 134 133 131 128 126 125 125 120 112 105 96 89
147 192 120 120 164 237 337 67 134 126 124 217 234 224 205 197 204 212 216 214 207 217 235 246 253 256 238 197 229 247 160 161 192 199 202 199 184 179 184 195 202 202 200 191 180 176 176 177 178 176 174 172 169 168 167 164 160 158 156 157 159 158 160 162 157 152 149 145 143 142 140 139 138 137 136 134 132 130 128 128 125 116 108 100 91 84
143 146 145 147 169 229 327 74 128 90 86 246 240 216 204 205 208 211 219 222 213 208 218 228 233 240 228 193 218 221 183 198 214 202 193 199 195 193 193 198 205 206 198 188 180 180 184 185 184 181 176 174 173 172 171 168 164 161 159 158 159 158 160 159 155 152 149 146 146 143 141 142 141 139 137 134 131 129 127 126 119 109 101 93 86 81
142 141 172 181 164 202 238 100 90 129 221 244 240 186 192 202 201 202 217 221 215 211 216 227 235 236 216 206 220 216 197 210 217 206 205 199 189 197 206 209 209 205 196 190 185 184 184 179 177 178 177 176 175 172 171 170 167 162 159 158 158 158 159 157 153 151 149 149 148 145 143 144 143 139 136 132 129 128 126 119 110 101 95 89 86 82
157 144 172 192 131 158 163 100 117 220 226 253 317 194 194 200 197 204 220 221 213 214 220 232 242 236 215 220 227 213 205 217 220 218 222 210 187 188 201 212 211 198 190 190 186 184 178 170 170 173 175 175 174 171 170 170 166 160 157 157 157 158 158 155 152 150 150 149 148 146 146 145 142 138 134 131 130 126 120 112 105 101 96 91 87 81
159 154 149 145 122 122 116 135 197 239 263 308 293 261 197 192 194 206 235 239 224 215 220 232 242 238 221 225 233 220 211 224 239 244 236 223 201 187 193 206 203 190 190 190 186 183 181 179 178 176 174 172 171 170 169 168 165 160 157 157 157 157 156 155 152 150 150 149 147 146 145 144 142 138 133 132 130 124 118 114 110 107 100 95 92 85
147 149 141 165 178 144 139 183 245 313 308 270 257 231 159 175 181 183 233 250 226 201 209 224 236 238 227 225 236 235 116 146 259 262 242 215 209 203 204 210 200 193 196 192 188 188 185 183 180 176 172 169 169 171 171 168 166 161 156 155 156 155 155 154 152 151 151 149 146 145 144 143 141 138 135 134 130 126 123 120 116 112 107 104 99 91
144 160 163 181 201 115 114 173 291 285 259 247 219 157 154 172 167 158 207 250 226 201 206 217 228 233 225 219 219 149 115 159 241 255 233 198 204 204 200 225 195 189 187 178 173 174 174 175 173 170 169 167 167 171 171 169 167 160 154 154 155 155 155 154 153 153 152 148 146 145 144 143 142 140 137 137 134 130 127 124 119 114 108 103 94 85
106 121 139 154 185 139 145 193 190 220 249 239 146 149 164 156 133 122 186 259 231 190 199 214 224 226 209 197 191 151 143 203 238 242 215 191 194 182 149 100 96 131 152 161 163 162 162 164 164 163 165 165 165 170 171 169 166 159 153 154 155 155 155 155 154 153 152 149 147 147 145 144 144 143 140 138 135 132 129 124 118 111 103 98 89 78
86 79 126 162 196 173 174 211 218 236 251 210 157 169 165 140 121 121 221 261 212 162 192 208 214 218 194 182 183 164 177 214 233 231 192 164 148 116 123 134 123 120 127 139 151 155 155 157 157 157 162 166 166 169 170 168 165 158 153 154 156 155 155 155 154 154 153 151 149 149 148 147 146 144 142 139 135 132 128 123 118 113 104 97 89 79
103 123 157 189 203 183 182 213 251 256 236 199 182 180 155 133 129 168 223 244 162 170 201 195 195 211 197 180 183 189 202 219 222 161 141 132 122 101 106 118 119 120 125 131 140 145 147 150 155 157 162 166 166 167 169 167 162 156 154 155 155 155 156 156 155 155 154 153 152 151 150 149 148 146 143 139 135 133 130 124 121 116 106 99 89 79
167 156 150 191 191 182 177 197 265 268 229 151 141 178 157 146 178 212 221 202 161 193 212 194 196 207 194 186 197 199 195 157 96 113 128 134 137 133 123 118 113 113 122 130 138 144 143 144 149 152 156 163 165 167 169 167 160 155 154 155 155 156 158 158 158 157 155 154 154 153 152 151 150 148 145 141 138 135 132 127 122 114 105 98 87 76
166 158 195 199 177 164 170 183 233 261 220 127 118 138 194 193 205 206 191 184 203 206 201 197 205 196 180 192 202 175 136 124 117 114 112 118 124 126 131 132 127 127 132 136 142 149 147 143 145 149 153 161 165 168 170 167 160 155 155 156 157 159 160 160 159 158 156 156 156 156 155 153 152 150 146 144 141 137 132 126 120 112 103 93 79 66
176 170 193 208 186 164 185 205 216 225 182 152 146 165 203 206 194 164 160 182 224 215 183 185 204 198 184 182 171 152 146 144 137 128 123 123 130 132 134 135 135 138 142 143 148 153 150 145 144 146 151 159 166 170 172 170 163 156 157 159 160 162 162 161 160 159 158 159 160 158 157 155 153 152 149 146 144 139 132 125 118 108 96 81 66 53
202 191 177 189 194 185 200 219 217 192 196 205 183 181 194 193 174 155 159 162 204 209 180 163 183 197 179 156 147 153 164 160 157 155 145 143 148 145 141 142 144 145 145 146 149 153 153 149 147 147 149 158 167 170 173 175 168 161 161 163 163 164 164 161 161 162 162 162 161 159 159 156 154 153 151 148 146 140 132 126 117 104 90 75 59 50
215 189 157 161 199 217 239 236 204 160 250 249 279 265 196 181 156 153 156 157 194 202 182 164 171 172 158 148 146 156 171 165 159 156 149 148 152 148 142 143 146 147 147 148 151 154 154 150 149 149 149 155 166 171 173 177 174 168 166 166 165 165 165 163 164 165 164 163 162 161 161 160 157 156 153 150 147 140 131 123 114 105 95 82 68 58
253 180 160 171 184 201 237 234 196 185 214 207 183 42 75 103 91 146 159 168 185 186 180 172 160 151 151 150 147 153 164 159 152 154 157 155 156 158 154 150 151 154 155 156 157 158 156 152 152 154 154 156 166 173 174 175 176 173 170 169 167 166 166 167 167 167 166 165 165 165 164 163 160 157 154 150 145 138 130 123 119 115 105 92 75 64
208 169 175 199 191 191 232 244 210 180 180 175 167 136 122 118 83 74 111 139 129 112 109 114 127 139 149 149 143 145 154 161 161 160 161 162 162 163 161 159 159 159 159 161 163 163 161 159 159 160 160 161 167 173 175 175 176 175 172 170 169 169 169 169 169 169 169 169 168 167 166 164 161 157 153 149 145 142 137 133 130 123 109 91 72 64
142 162 178 185 192 228 280 280 120 79 54 285 243 207 163 153 128 105 101 106 101 94 85 71 71 120 143 149 147 142 149 170 172 158 157 165 165 164 166 165 163 163 163 165 168 169 168 167 167 166 166 167 170 173 175 176 176 176 174 172 172 171 172 171 171 172 172 171 169 169 167 165 162 159 156 152 149 147 144 141 137 129 115 98 82 75
148 174 172 163 195 228 231 194 160 127 142 239 230 193 171 162 134 120 115 106 101 107 105 86 59 47 76 119 144 144 151 167 167 156 159 167 167 166 167 165 163 165 167 169 172 175 175 174 173 171 169 171 174 176 177 178 177 176 175 175 174 175 176 175 174 173 173 173 172 172 170 168 164 161 160 156 151 148 145 142 139 131 122 114 107 104
180 187 176 174 202 224 209 183 169 139 133 213 195 164 174 170 135 127 137 134 127 132 121 106 94 74 57 53 109 144 152 158 158 157 156 159 167 169 169 169 169 168 171 173 174 176 179 179 177 176 175 177 179 180 181 180 179 177 178 178 177 177 179 180 178 176 175 176 176 175 173 172 169 166 164 157 150 146 144 143 140 134 131 127 119 114